Location: Peterborough
(44.3091°N, 78.3197°W)
Time: 17:57:56
(UTC-04:00)

Explorer 11/Cluster Stage 4 - Pass Details

Date: 24 March 2023
Orbit: 466 x 1237 km, 28.8° (Epoch: 05 June)

Event Time Altitude Azimuth Distance (km) Brightness Sun altitude
Rises 09:32:26 0° 227° (SW) 3,075 9.4 24.2°
Reaches altitude 10° 09:35:32 10° 206° (SSW) 2,311 9.1 24.7°
Maximum altitude 09:38:53 16° 168° (SSE) 2,060 9.4 25.2°
Drops below altitude 10° 09:42:39 10° 132° (SE) 2,651 10.8 25.8°
Sets 09:46:35 0° 113° (ESE) 3,770 11.4 26.5°
